User: anonymous   Login
Location: Unspecified
(0.0000°N, 0.0000°E)
Time: 19:49:28
(UTC+00:00)
Language:

OBJECT AA - Orbit

View from above orbital plane
View from above orbital plane
View from above satellite
View from above satellite

Ground track
Ground track

The orbit data is extracted from the following two-line orbital elements,

1 42849U 17042AA  19341.47727829 -.00000068  00000-0 -14053-5 0  9999
2 42849  97.5463 228.9706 0007608 191.5848 168.5198 14.92427145130623
Epoch (UTC): 07 December 2019 11:27:16
Eccentricity: 0.0007608
inclination: 97.5463°
perigee height: 585 km
apogee height: 595 km
right ascension of ascending node: 228.9706°
argument of perigee: 191.5848°
revolutions per day: 14.92427145
mean anomaly at epoch: 168.5198°
orbit number at epoch: 13062

The dashed part of the orbit path shows where the satellite is in the earth's shadow,  

DLR